Regional Weather Roundup
Issued by NWS

Home | Current Version | Previous Version | Text Only | Print | Product List | Glossary Off
Versions: 1 2 3 4 5 6 7 8 9 10 11 12 13 14 15 16 17 18 19 20 21 22 23 24 25 26 27 28 29 30 31 32 33 34 35 36 37 38 39 40 41 42 43 44 45 46 47 48 49 50

687
ASUS43 KMKX 250411
RWRWI

WISCONSIN REGIONAL WEATHER ROUNDUP
NATIONAL WEATHER SERVICE MILWAUKEE/SULLIVAN WI
1000 PM CST FRI FEB 24 2017

NOTE: "FAIR" INDICATES FEW OR NO CLOUDS BELOW 12,000 FEET WITH NO
SIGNIFICANT WEATHER AND/OR OBSTRUCTIONS TO VISIBILITY.

WIZ001-002-006>008-014>016-023>028-250500-
NORTHWEST WISCONSIN

CITY           SKY/WX    TMP DP  RH WIND       PRES   REMARKS
SUPERIOR ARPT  CLOUDY    19   7  59 N10G18    29.91S WCI   7
ASHLAND        CLOUDY    20   8  60 N12       29.84S WCI   8
HAYWARD        CLOUDY    19   5  54 N8G21     29.81S WCI   9
SIREN          PTCLDY    20   8  58 N12G20    29.87S WCI   8
CUMBERLAND     CLOUDY    19   9  63 N15       29.81S WCI   5
RICE LAKE      CLOUDY    20  12  70 CALM      29.83S
CHETEK         CLOUDY    19  10  70 N7        29.81F WCI   9
LADYSMITH      LGT SNOW  17  13  87 N12       29.79S WCI   4
EAU CLAIRE     LGT SNOW  18  14  84 N7        29.80F FOG     WCI   9
MENOMONIE      CLOUDY    21  12  70 NW10      29.82F WCI  10
NEW RICHMOND   CLOUDY    21   9  59 N18G26    29.85S WCI   6
OSCEOLA        CLOUDY    22  10  60 NW10G16   29.90S WCI  11
$$

WIZ003>005-009-010-017-018-250500-
NORTH CENTRAL WISCONSIN

CITY           SKY/WX    TMP DP  RH WIND       PRES   REMARKS
MANITOWISH WTR LGT SNOW  15  14  96 NW8       29.70F VSB 1   WCI   4
ARBOR VITAE    LGT SNOW  18  15  87 N14         N/A  VSB 3/4 WCI   4
WOODRUFF       LGT SNOW  18  15  87 N14         N/A  VSB 3/4 WCI   4
RHINELANDER    LGT SNOW  18  16  93 NW8       29.66F VSB 3/4 WCI   7
EAGLE RIVER    LGT SNOW  17  12  82 N12       29.65F WCI   4
LAND O LAKES   LGT SNOW  17  13  86 N13G18    29.68S WCI   4
PHILLIPS       LGT SNOW  15  13  92 N8        29.72F WCI   4
TOMAHAWK       LGT SNOW  16  13  87 N10G17    29.68F VSB 1   WCI   4
MEDFORD        LGT SNOW  16  12  84 N14G20    29.68F WCI   2
MERRILL        NOT AVBL
$$

WIZ029-030-035-036-043>047-250500-
CENTRAL WISCONSIN

CITY           SKY/WX    TMP DP  RH WIND       PRES   REMARKS
WAUSAU         LGT SNOW  18  15  88 NW9       29.65F FOG     WCI   7
MOSINEE        LGT SNOW  18  18 100 N17G24    29.66F WCI   2
MARSHFIELD     LGT SNOW  18  13  80 N18G25    29.67F WCI   2
STEVENS POINT  LGT SNOW  18  15  87 NW10G17   29.66S WCI   6
WAUPACA        FLURRIES  23  19  85 NW10      29.64S WCI  12
WAUTOMA        FLURRIES  21  19  93 NW12      29.66R WCI   9
WISC RAPIDS    FLURRIES  20  16  84 N13G22    29.69R WCI   7
CAMP DOUGLAS   FLURRIES  21  18  86 N8        29.69S WCI  12
$$

WIZ011>013-019>022-031-037>040-048>050-250500-
NORTHEAST WISCONSIN

CITY           SKY/WX    TMP DP  RH WIND       PRES   REMARKS
ANTIGO         LGT SNOW  17  13  88 N17G23    29.61F WCI   1
SHAWANO        CLOUDY    23  20  85 CALM      29.62F
OCONTO         CLOUDY    22  20  91 NW8       29.59F WCI  13
STURGEON BAY   MIX PCPN  25  23  92 MISG      29.55F FOG
GREEN BAY      CLOUDY    24  23  96 N15G22    29.59F FOG     WCI  11
MANITOWOC      MIX PCPN  25  23  92 NW17G24   29.56S FOG     WCI  12
APPLETON       CLOUDY    21  21 100 N13       29.58F FOG     WCI   9
CLINTONVILLE   CLOUDY    23  19  86 N8        29.62F WCI  14
OSHKOSH        FRZ RAIN  24  21  88 NW14G22   29.60S FOG     WCI  12
$$

WIZ032>034-041-042-053>061-250500-
SOUTHWEST WISCONSIN

CITY           SKY/WX    TMP DP  RH WIND       PRES   REMARKS
LA CROSSE      CLOUDY    22  16  78 N21G31    29.77S HAZE    WCI   6
SPARTA         LGT SNOW  20  17  89 NW13      29.74S WCI   7
VIROQUA        CLOUDY    20  18  92 NW14      29.69R WCI   6
BOSCOBEL       LGT SNOW  25  20  81 NW10G20   29.72R WCI  15
PRAIRIE DU CHI LGT SNOW  24  19  83 NW15G21   29.74R WCI  11
PLATTEVILLE    CLOUDY    26  25  95 NW10      29.67R WCI  17
$$

WIZ056-057-062-063-064-067-068-250500-
SOUTH CENTRAL WISCONSIN

CITY           SKY/WX    TMP DP  RH WIND       PRES   REMARKS
REEDSBURG      LGT SNOW  23  21  93 NW9       29.67R WCI  13
BARABOO/DELLS  CLOUDY    23  21  91 N6        29.65S FOG     WCI  16
LONE ROCK      LGT SNOW  26  20  77 N8        29.68S WCI  18
MINERAL POINT  LGT SNOW  28  27  93 N5        29.64S WCI  23
MADISON        LGT SNOW  26  23  88 N10       29.63R WCI  16
MIDDLETON      CLOUDY    28  26  94 N7        29.64S WCI  21
WATERTOWN      CLOUDY    27  27 100 N7        29.59F FOG     WCI  19
MONROE         FLURRIES  28  27  93 N8        29.62R WCI  20
JANESVILLE     MIX PCPN  30  30 100 NW10      29.62R WCI  21
$$

WIZ051-052-058>065-066-070>072-250500-
SOUTHEAST WISCONSIN

CITY           SKY/WX    TMP DP  RH WIND       PRES   REMARKS
MILWAUKEE      CLOUDY    30  26  85 NW8       29.58R WCI  22
WAUKESHA       CLOUDY    27  23  86 NW10      29.59S WCI  17
MILWAUKEE/TIMM LGT SNOW  28  23  80 NW10      29.59R WCI  19
RACINE         CLOUDY    31  27  85 NW8       29.59S WCI  23
KENOSHA        CLOUDY    31  27  85 NW9       29.58R WCI  23
FOND DU LAC    LGT SNOW  25  21  85 N17       29.60S FOG     WCI  12
SHEBOYGAN      LGT SNOW  25  22  88 N15G23    29.55S FOG     WCI  13
WEST BEND      LGT SNOW  27  27 100 CALM      29.57S
JUNEAU         MIX PCPN  25  23  93 N6        29.60F WCI  18
$$

LSZ147-162-250500-
LAKE SUPERIOR

STATION/POSITION TIME  TEMP    WIND        PRES    WAVE
                       AIR SEA DIR/SP/G            HT/PER
                 (UTC) (F)     (DEG/KT/KT) (MB)    (FT/S)
DEVILS ISLAND    0400   21      10/ 19/ 21 1011.9F
PORT WING        0330   22     350/ 21/ 25 1012.2R
SAXON HARBOR     0330   23     360/ 16/ 21 1010.2S
$$

LMZ867-665-643>646-250500-
LAKE MICHIGAN

STATION/POSITION TIME  TEMP    WIND        PRES    WAVE
                       AIR SEA DIR/SP/G            HT/PER
                 (UTC) (F)     (DEG/KT/KT) (MB)    (FT/S)
CHAMBERS ISLAND  0140   27     350/  4/  5 1001.4
NORTHPORT PIER   0340   28     360/  4/  5 1000.7S
SISTER BAY       0335   27        CALM       N/A
KEWAUNEE LAKESHO 0348   26     330/ 13/ 18 1000.0F
SHEBOYGAN LAKESH 0400   26     320/  8/  9 1001.3S
PORT WASHINGTON  0340   27     320/  8/ 16 1002.7R
MILWAUKEE LAKESH 0330   29     310/ 10/ 12   N/A
KENOSHA   LAKESH 0400   31     310/  9/ 12 1002.0
$$

TC  - TEMPERATURE IN CELSIUS
VSB - VISIBILITY IN STATUTE MILES
WCI - WIND CHILL INDEX
HX  - HEAT INDEX





USA.gov is the U.S. government's official web portal to all federal, state and local government web resources and services.